Weather History for Elko, NV

Change the Weather History Date:

Monday, February 24, 2014

  Actual Average Record
Temperature  
Mean Temperature 44 °F 33 °F  
Max Temperature 61 °F 45 °F 69 °F (1986)
Min Temperature 26 °F 21 °F -20 °F (1894)
Degree Days  
Heating Degree Days 21 32  
Month to date heating degree days 691 858  
Since 1 July heating degree days 4639 5043  
Cooling Degree Days 0 0  
Month to date cooling degree days 0 0  
Year to date cooling degree days 0 0  
Moisture  
Dew Point 21 °F    
Average Humidity 52    
Maximum Humidity 85    
Minimum Humidity 19    
Precipitation  
Precipitation 0.00 in 0.03 in 0.96 in (1902)
Month to date precipitation 1.72 0.71  
Year to date precipitation 2.14 1.83  
Snow  
Snow 0.00 in 0.20 in 4.50 in (1890)
Month to date snowfall 1.6 5.7  
Since 1 July snowfall 12.3 31.8  
Snow Depth 0.00 in    
Sea Level Pressure  
Sea Level Pressure 30.05 in    
Wind  
Wind Speed 3 mph (South)    
Max Wind Speed 14 mph    
Max Gust Speed 18 mph    
Visibility 10 miles    
Events      
T = Trace of Precipitation, MM = Missing Value Source: NWS Daily Summary

Daily Weather History Graph

Daily Weather History Graph

Search for Another Location

Airport:

Trip Planner

Search our weather history database for the weather conditions in past years. The results will help you decide how hot, cold, wet, or windy it might be!

Date:

Astronomy

Feb. 24, 2014 Rise Set
Actual Time 6:24 AM PST 5:28 PM PST
Civil Twilight 5:56 AM PST 5:56 PM PST
Nautical Twilight 5:25 AM PST 6:28 PM PST
Astronomical Twilight 4:53 AM PST 6:59 PM PST
Moon 2:28 AM PST (2/24) 12:33 PM PST (2/24)
Length of Visible Light 11h 59m
Length of Day
11h 04m
Waning Crescent, 27% of the Moon is Illuminated
Feb 24
Waning Crescent
Mar 1
New
Mar 8
First Quarter
Mar 16
Full
Mar 23
Last Quarter

Hourly Weather History & Observations

Time (PST) Temp. Windchill Dew Point Humidity Pressure Visibility Wind Dir Wind Speed Gust Speed Precip Events Conditions
12:56 AM 27.0 °F - 21.0 °F 78% 30.05 in 10.0 mi Calm Calm - N/A   Clear
1:56 AM 28.0 °F - 21.0 °F 75% 30.05 in 10.0 mi Calm Calm - N/A   Partly Cloudy
2:56 AM 27.0 °F 23.0 °F 21.0 °F 78% 30.04 in 10.0 mi SE 3.5 mph - N/A   Clear
3:56 AM 30.0 °F - 21.9 °F 72% 30.04 in 10.0 mi Calm Calm - N/A   Overcast
4:56 AM 28.9 °F - 23.0 °F 78% 30.07 in 10.0 mi Calm Calm - N/A   Overcast
5:56 AM 28.9 °F - 24.1 °F 82% 30.09 in 10.0 mi Calm Calm - N/A   Overcast
6:56 AM 32.0 °F - 24.1 °F 73% 30.12 in 10.0 mi Calm Calm - N/A   Overcast
7:56 AM 35.1 °F - 25.0 °F 67% 30.14 in 10.0 mi Calm Calm - N/A   Overcast
8:56 AM 41.0 °F - 24.1 °F 51% 30.13 in 10.0 mi Calm Calm - N/A   Partly Cloudy
9:56 AM 48.0 °F - 21.9 °F 36% 30.12 in 10.0 mi WSW 5.8 mph - N/A   Clear
10:56 AM 53.1 °F - 21.0 °F 29% 30.10 in 10.0 mi SSW 3.5 mph - N/A   Clear
11:56 AM 57.0 °F - 16.0 °F 20% 30.07 in 10.0 mi WSW 5.8 mph - N/A   Clear
12:56 PM 59.0 °F - 18.0 °F 20% 30.04 in 10.0 mi SSW 5.8 mph - N/A   Clear
1:56 PM 60.1 °F - 17.1 °F 19% 30.01 in 10.0 mi SW 8.1 mph - N/A   Clear
2:56 PM 61.0 °F - 17.1 °F 18% 30.00 in 10.0 mi Variable 3.5 mph 16.1 mph N/A   Clear
3:56 PM 60.1 °F - 18.0 °F 20% 29.99 in 10.0 mi SW 10.4 mph - N/A   Clear
4:56 PM 57.9 °F - 19.9 °F 23% 29.99 in 10.0 mi West 5.8 mph - N/A   Clear
5:56 PM 52.0 °F - 21.0 °F 30% 30.01 in 10.0 mi Calm Calm - N/A   Clear
6:56 PM 45.0 °F 42.6 °F 21.9 °F 40% 30.04 in 10.0 mi NE 4.6 mph - N/A   Clear
7:56 PM 43.0 °F 41.3 °F 21.0 °F 42% 30.04 in 10.0 mi East 3.5 mph - N/A   Clear
8:56 PM 39.0 °F - 21.9 °F 50% 30.04 in 10.0 mi Calm Calm - N/A   Clear
9:56 PM 37.0 °F 33.3 °F 23.0 °F 57% 30.04 in 10.0 mi ENE 4.6 mph - N/A   Clear
10:56 PM 36.0 °F 33.3 °F 21.9 °F 57% 30.03 in 10.0 mi East 3.5 mph - N/A   Clear
11:56 PM 32.0 °F 28.7 °F 23.0 °F 69% 30.04 in 10.0 mi East 3.5 mph - N/A   Clear